Regional Weather Roundup
Issued by NWS Little Rock, AR

Home | Current Version | Previous Version | Graphics & Text | Print | Product List | Glossary On
Versions: 1 2 3 4 5 6 7 8 9 10 11 12 13 14 15 16 17 18 19 20 21 22 23 24 25 26 27 28 29 30 31 32 33 34 35 36 37 38 39 40 41 42 43 44 45 46 47 48 49 50
000
ASUS44 KLZK 121605
RWRLZK

WEATHER ROUNDUP FOR ARKANSAS
NATIONAL WEATHER SERVICE LITTLE ROCK AR
1000 AM CST FRI FEB 12 2016

NOTE: "FAIR" INDICATES FEW OR NO CLOUDS BELOW 12,000 FEET WITH NO
SIGNIFICANT WEATHER AND/OR OBSTRUCTIONS TO VISIBILITY.

ARZ001-003-010-029-121700-
NORTHWEST ARKANSAS

CITY           SKY/WX    TMP DP  RH WIND       PRES   REMARKS
FAYETTEVILLE   SUNNY     45  30  55 N8        30.30R
FORT SMITH     SUNNY     46  26  45 W9        30.30R
HARRISON       SUNNY     44  26  49 N12G22    30.27R
BENTONVILLE    SUNNY     41  25  52 N9        30.31R
ROGERS         SUNNY     41  27  57 N8        30.30R
SILOAM SPGS    SUNNY     43  25  49 N13       30.31R
HIGHFILL       SUNNY     43  28  55 N15       30.30R
SPRINGDALE     SUNNY     45  28  53 N12G18    30.31R
$$

ARZ004-005-016-121700-
NORTH CENTRAL ARKANSAS

CITY           SKY/WX    TMP DP  RH WIND       PRES   REMARKS
BATESVILLE     SUNNY     43  27  52 NW7       30.28R
FLIPPIN        SUNNY     45  23  42 N14G20    30.26R
MTN HOME       SUNNY     43  25  49 NW9       30.26R
$$

ARZ040-041-121700-
WEST CENTRAL ARKANSAS

CITY           SKY/WX    TMP DP  RH WIND       PRES   REMARKS
MENA           SUNNY     55  34  44 E3        30.28R
MOUNT IDA      SUNNY     49  31  49 VRB3      30.24R
$$

ARZ009-017-025-026-028-121700-
NORTHEAST ARKANSAS

CITY           SKY/WX    TMP DP  RH WIND       PRES   REMARKS
JONESBORO      SUNNY     39  26  59 NW7       30.27R
NEWPORT        SUNNY     40  27  60 NW6       30.29R
WALNUT RIDGE   SUNNY     39  23  52 N7        30.29R
BLYTHEVILLE    SUNNY     45  27  49 NW7       30.26R
NW BLYTHEVILLE MOSUNNY   39  27  60 N3        30.26R
$$

ARZ022-023-033-042-044-121700-
CENTRAL ARKANSAS

CITY           SKY/WX    TMP DP  RH WIND       PRES   REMARKS
LITTLE ROCK    MOSUNNY   47  28  47 W9        30.28R
N LITTLE ROCK  MOSUNNY   46  30  55 NW8       30.28R
SEARCY         SUNNY     48  29  47 NW6       30.28S
HOT SPRINGS    SUNNY     47  31  53 VRB3      30.27R
RUSSELLVILLE   SUNNY     43  29  57 CALM      30.28R
CLINTON        FAIR      50  27  40 NW5G16    30.26S
$$

ARZ036-121700-
EAST ARKANSAS

CITY           SKY/WX    TMP DP  RH WIND       PRES   REMARKS
WEST MEMPHIS   SUNNY     42  29  59 NW7       30.25R
$$

ARZ050-053-066-070-073-121700-
SOUTHWEST ARKANSAS

CITY           SKY/WX    TMP DP  RH WIND       PRES   REMARKS
ARKADELPHIA    FAIR      51  34  52 SE3       30.29R
CAMDEN         SUNNY     48  27  43 CALM      30.29R
TEXARKANA      SUNNY     49  30  48 CALM      30.28R
EL DORADO      SUNNY     49  30  48 CALM      30.28R
DE QUEEN       SUNNY     50  35  56 CALM      30.27R
$$

ARZ056-057-069-121700-
SOUTHEAST ARKANSAS

CITY           SKY/WX    TMP DP  RH WIND       PRES   REMARKS
PINE BLUFF     SUNNY     45  29  53 N8        30.28R
STUTTGART      SUNNY     45  28  53 NW6       30.28R
MONTICELLO     SUNNY     51  32  48 NW3       30.27R

$$





USA.gov is the U.S. government's official web portal to all federal, state and local government web resources and services.